TimeEST,TemperatureF,Dew PointF,Humidity,Sea Level PressureIn,VisibilityMPH,Wind Direction,Wind SpeedMPH,Gust SpeedMPH,PrecipitationIn,Events,Conditions,WindDirDegrees,DateUTC
12:53 AM,46.9,45.0,93,30.20,-9999.0,East,3.5,-,N/A,,Unknown,90,2013-01-01 05:53:00
1:53 AM,46.9,44.1,90,30.17,-9999.0,ESE,3.5,-,N/A,,Unknown,120,2013-01-01 06:53:00
2:53 AM,46.0,44.1,93,30.17,-9999.0,Calm,Calm,-,N/A,,Unknown,0,2013-01-01 07:53:00
3:53 AM,46.9,45.0,93,30.17,-9999.0,Calm,Calm,-,N/A,,Unknown,0,2013-01-01 08:53:00
4:53 AM,50.0,48.0,93,30.15,-9999.0,Calm,Calm,-,N/A,,Unknown,0,2013-01-01 09:53:00
5:53 AM,53.1,48.9,86,30.12,-9999.0,ESE,4.6,-,N/A,,Unknown,120,2013-01-01 10:53:00
6:53 AM,53.1,48.9,86,30.12,-9999.0,Calm,Calm,-,N/A,,Unknown,0,2013-01-01 11:53:00
7:53 AM,54.0,50.0,86,30.14,-9999.0,Calm,Calm,-,N/A,,Unknown,0,2013-01-01 12:53:00
8:53 AM,57.0,51.1,81,30.13,-9999.0,SSE,6.9,-,N/A,,Unknown,150,2013-01-01 13:53:00
9:53 AM,66.0,53.1,63,30.13,-9999.0,SSE,11.5,-,N/A,,Unknown,160,2013-01-01 14:53:00
10:53 AM,72.0,55.0,55,30.13,-9999.0,SSW,18.4,21.9,N/A,,Unknown,200,2013-01-01 15:53:00
11:53 AM,73.0,54.0,51,30.12,-9999.0,SSW,17.3,21.9,N/A,,Unknown,200,2013-01-01 16:53:00
12:53 PM,73.9,54.0,50,30.09,-9999.0,South,16.1,26.5,N/A,,Unknown,180,2013-01-01 17:53:00
1:53 PM,73.9,55.0,52,30.07,-9999.0,SSW,12.7,-,N/A,,Unknown,200,2013-01-01 18:53:00
2:53 PM,72.0,55.0,55,30.05,-9999.0,South,12.7,-,N/A,,Unknown,180,2013-01-01 19:53:00
3:53 PM,71.1,55.0,57,30.06,-9999.0,SSW,11.5,-,N/A,,Unknown,200,2013-01-01 20:53:00
4:53 PM,70.0,55.0,59,30.02,-9999.0,SSE,8.1,-,N/A,,Unknown,160,2013-01-01 21:53:00
5:53 PM,66.0,55.0,68,30.03,-9999.0,South,6.9,-,N/A,,Unknown,180,2013-01-01 22:53:00
6:53 PM,61.0,54.0,78,30.03,-9999.0,SSE,5.8,-,N/A,,Unknown,150,2013-01-01 23:53:00
7:53 PM,62.1,55.9,80,30.04,-9999.0,Calm,Calm,-,N/A,,Unknown,0,2013-01-02 00:53:00
8:53 PM,62.1,55.9,80,30.02,-9999.0,SE,4.6,-,N/A,,Unknown,130,2013-01-02 01:53:00
9:53 PM,63.0,57.0,81,30.03,-9999.0,Calm,Calm,-,N/A,,Unknown,0,2013-01-02 02:53:00
10:53 PM,64.9,59.0,81,30.02,-9999.0,South,6.9,-,N/A,,Unknown,190,2013-01-02 03:53:00
11:53 PM,64.9,59.0,81,30.01,-9999.0,SSW,6.9,-,N/A,,Unknown,210,2013-01-02 04:53:00